Preview of NWS' New Version of Forecast
This preview is not operational and should not be used for support decisions.
Latest weather observations around

Jackson, Hawkins Field Airport (KHKS)

Using English Units (Switch to International System of Units)
Date/ Time (CDT) Wind (mph) Vis. (mi) Weather Sky Cond. Temp (°F) Rel. Humidity Wind Chill (°F) Heat Index (°F) Pressure Precip. (in)
Air Dwpt 6 hour Altimeter (inHg) Sea level (inHg) 1 hr 3 hr 6 hr
Max Min
Sep 23 01:53 S 7 10 Clear CLR 74 68     82%   75 30.07 30.05      
Sep 23 00:53 S 8 10 Clear CLR 75 68     79%   76 30.08 30.06      
Sep 22 23:53 S 9 10 Clear CLR 77 68     74%   78 30.09 30.07      
Sep 22 22:53 SSE 7 10 Mostly Cloudy BKN075 76 67     74%   77 30.09 30.07      
Sep 22 21:53 SE 5 10 Clear CLR 78 66     67%   79 30.09 30.06      
Sep 22 20:53 SE 3 10 Clear CLR 80 66     62%   82 30.08 30.06      
Sep 22 19:53 SSE 5 10 Clear   80 65     60%   82 30.06 30.03      
Sep 22 18:53 SE 5 10 Clear CLR 82 65     56%   84 30.05 30.03      
Sep 22 17:53 SSE 7 10 Mostly Cloudy BKN070 86 64     48%   87 30.05 30.03      
Sep 22 16:53 SSE 9 10 Partly Cloudy SCT055 88 64     45%   89 30.05 30.02      
Sep 22 15:53   10 Mostly Clear FEW070 90 64     42%   91 30.06 30.03      
Sep 22 14:53 S 9 10 Cloudy OVC070 88 64     45%   89 30.07 30.05      
Sep 22 13:53 SSE 10 10 Mostly Cloudy BKN055 88 63     43%   89 30.1 30.07      
Sep 22 12:53 S 13 10 Mostly Clear FEW050 89 64     44%   90 30.11 30.09      
Sep 22 11:53 SSE 8 10 Clear CLR 87 63     45%   88 30.13 30.11      
Sep 22 10:53 SSE 11 10 Clear CLR 86 63     46%   87 30.15 30.12      
Sep 22 09:53 S 13 10 Clear CLR 83 65     55%   85 30.15 30.13      
Sep 22 08:53 S 7 10 Clear CLR 80 68     67%   83 30.15 30.12      
Sep 22 07:53 S 3 10 Cloudy OVC075 75 68     79%   76 30.15 30.12      
Sep 22 06:53 SE 5 10 Cloudy OVC075 74 68     82%   75 30.14 30.11      
Sep 22 05:53 SE 5 10 Cloudy OVC075 74 69     85%   75 30.14 30.11      
Sep 22 04:53 SSE 6 10 Cloudy OVC075 74 69     85%   75 30.13 30.1      
Sep 22 03:53 SE 5 10 Cloudy OVC075 74 69     85%   75 30.13 30.1      
Sep 22 02:53 SE 5 10 Cloudy OVC070 73 69     87%   74 30.13 30.11      
Sep 22 01:53 Calm 10 Clear CLR 73 68     84%   74 30.13 30.1      
Sep 22 00:53 SE 3 10 Clear CLR 74 68     82%   75 30.12 30.09      
Sep 21 23:53 S 5 10 Clear CLR 74 68     82%   75 30.13 30.11      
Sep 21 22:53 S 6 10 Clear CLR 76 68     76%   77 30.14 30.11      
Sep 21 21:53 S 10 10 Mostly Clear FEW085 79 67     67%   80 30.14 30.11      
Sep 21 20:53 ESE 6 10 Partly Cloudy SCT070 80 63     56%   81 30.13 30.1      
Sep 21 19:53 ESE 6 10 Mostly Cloudy SCT070 BKN080 83 63     51%   84 30.11 30.08      
Sep 21 18:53 SE 7 10 Cloudy OVC080 84 62     48%   85 30.1 30.08      
Sep 21 17:53 SSE 10 10 Clear CLR 87 62     43%   88 30.1 30.07      
Sep 21 16:53 7 10 Clear CLR 90 62     40%   90 30.1 30.07      
Sep 21 15:53 ESE 3 10 Clear CLR 90 61     38%   90 30.11 30.09      
Sep 21 14:53 ESE 9 10 Mostly Clear FEW065 90 63     41%   91 30.14 30.11      
Sep 21 13:53 SE 11 10 Mostly Clear FEW055 90 62     40%   90 30.16 30.13      
Sep 21 12:53 SE 10 10 Mostly Clear FEW050 89 62     41%   90 30.18 30.15      
Sep 21 11:53 SSE 14 10 Clear CLR 87 63     45%   88 30.2 30.18      
Sep 21 10:53 E 10 10 Clear CLR 86 63     46%   87 30.22 30.19      
Sep 21 09:53 ESE 9 10 Clear CLR 83 65     55%   85 30.23 30.2      
Sep 21 08:53 ESE 3 10 Clear CLR 77 66     69%   78 30.22 30.19      
Sep 21 07:53 Calm 10 Clear CLR 70 65     84%     30.2 30.18      
Sep 21 06:53 Calm 10 Clear CLR 66 62     87%     30.19 30.16      
Sep 21 05:53 Calm 10 Clear CLR 67 62     84%     30.18 30.15      
Sep 21 04:53 Calm 10 Clear CLR 67 62     84%     30.16 30.14      
Sep 21 03:53 Calm 10 Clear CLR 67 62     84%     30.16 30.13      
Sep 21 02:53 Calm 10 Clear CLR 70 62     76%     30.16 30.13      
Sep 21 01:53 SE 3 10 Clear CLR 70 62     76%     30.16 30.14      
Sep 21 00:53 Calm 10 Clear CLR 71 62     73%   71 30.16 30.13      
Sep 20 23:53 Calm 10 Clear CLR 74 62     66%   74 30.16 30.13      
Sep 20 22:53 Calm 10 Clear CLR 75 62     64%   75 30.16 30.14      
Sep 20 21:53 ESE 7 10 Clear CLR 77 63     62%   77 30.15 30.12      
Sep 20 20:53 SE 6 10 Clear CLR 78 63     60%   78 30.14 30.12      
Sep 20 19:53 ESE 6 10 Clear CLR 80 63     56%   81 30.13 30.11      
Sep 20 18:53 ESE 7 10 Clear   83 62     49%   84 30.11 30.09      
Sep 20 17:53 ESE 10 10 Clear CLR 85 62     46%   86 30.1 30.08      
Sep 20 16:53 SE 9 10 Clear   88 62     42%   88 30.1 30.07      
Sep 20 15:53 SE 7 10 Clear CLR 88 64     45%   89 30.11 30.08      
Sep 20 14:53 SE 10 10 Clear CLR 88 64     45%   89 30.12 30.09      
Sep 20 13:53 SE 8 10 Clear CLR 88 65     47%   90 30.14 30.11      
Sep 20 12:53 SSE 14 10 Clear CLR 87 65     48%   89 30.16 30.13      
Sep 20 11:53 SE 10 10 Clear CLR 85 64     50%   86 30.17 30.15      
Sep 20 10:53 SE 15 10 Mostly Clear FEW120 82 61     49%   83 30.19 30.16      
Sep 20 09:53 SE 10 10 Clear CLR 80 62     54%   81 30.18 30.15      
Sep 20 08:53 ESE 14 10 Clear CLR 77 63     62%   77 30.16 30.13      
Sep 20 07:53 SE 10 10 Clear CLR 75 66     74%   76 30.14 30.11      
Sep 20 06:53 ESE 9 10 Clear CLR 73 69     87%   74 30.12 30.09      
Sep 20 05:53 SE 9 10 Clear CLR 73 69     87%   74 30.1 30.07      
Sep 20 04:53 ESE 9 10 Clear CLR 74 69     85%   75 30.08 30.05      
Sep 20 03:53 ESE 6 10 Clear CLR 74 70     87%   75 30.07 30.04      
Sep 20 02:53 SSE 7 10 Mostly Cloudy BKN060 74 70     87%   75 30.07 30.04      
Sep 20 01:53 SE 8 10 Clear CLR 74 71     91%   75 30.07 30.04      
Sep 20 00:53 SE 6 10 Partly Cloudy FEW060 SCT110 75 70     84%   76 30.06 30.03      
Sep 19 23:53 SSE 10 10 Partly Cloudy SCT110 75 70     84%   76 30.06 30.03      
May 15 03:53 Calm 9 Clear CLR 70 69     97%     29.93 29.91      
May 14 06:53 Calm 8 Clear CLR 69 67     93%     30.05 30.02      
May 13 05:53 E 3 6 Fog/Mist CLR 65 64     97%     30.08 30.06      
May 13 00:53 S 6 10 Clear CLR 72 65     79%   73 30.07 30.04      
May 12 16:53 SSW 7 10 Clear CLR 89 63     42%   90 30.04 30.02      
May 12 02:53 S 6 10 Clear CLR 67 61     81%     30.05 30.03      
Jun 11 16:53 S 14 10 Light Rain BKN038 BKN050 BKN060 82 71     69%   86 30.02 30 0    
Jun 11 11:53 SE 9 10 Mostly Clear FEW033 85 71     63%   90 30.08 30.05      
Jun 10 22:53 Calm 10 Clear CLR 75 65     71%   76 30.03 30.01      
Jun 10 18:53 SSE 10 10 Clear CLR 84 61     46%   84 29.97 29.95      
Jun 10 02:53 Calm 10 Clear CLR 65 61     87%     29.97 29.94      
Jun 08 09:53 N 7 10 Clear CLR 77 53     43%   76 29.99 29.96      
Jun 08 07:53 NE 5 10 Clear CLR 69 57     65%     29.98 29.95      
Jun 07 10:53 N 8 10 Clear CLR 78 62     58%   78 29.87 29.85      
Jun 06 05:08 Calm 2 Light Rain and Fog/Mist OVC002 73 71     94%   74 29.74   0    
Jun 06 03:04 Calm 8 Light Rain SCT005 BKN110 73 70     90%   74 29.73   0    
Jun 06 02:28 Calm 10 Mostly Cloudy FEW005 BKN018 BKN026 73 70     90%   74 29.74